Location: Maddington
(51.2000°N, 1.9167°W)
Time: 22:31:49
(UTC+00:00)

NOSS 3-2 (A) - Pass Details

Date: 22 January 2021
Orbit: 783 x 1425 km, 63.4° (Epoch: 07 March)

Event Time Altitude Azimuth Distance (km) Brightness Sun altitude
Rises 05:05:04 0° 164° (SSE) 3,331 6.5 -26.7°
Reaches altitude 10° 05:08:20 10° 143° (SE) 2,473 6.0 -26.2°
Maximum altitude 05:11:41 16° 106° (ESE) 2,161 6.1 -25.7°
Drops below altitude 10° 05:15:15 10° 71° (ENE) 2,684 6.7 -25.1°
Sets 05:19:01 0° 51° (NE) 3,768 7.3 -24.5°
